This is the latest recevied weather packets stored in our database for station/object NK7E-2. If no packets are shown the sender has not sent any weather packets the latest 10 day(s).
| Time | Temp. | Humidity | Pressure | Rain* | Wind** | Luminosity | Snow |
|---|---|---|---|---|---|---|---|
| 1788379817 | 32.78° C | 37% | 1028.8 hPa | 0 mm | - | - | - |
| 1788379220 | 33.33° C | 35% | 1029.2 hPa | 0 mm | - | - | - |
| 1788378617 | 33.33° C | 36% | 1029.3 hPa | 0 mm | - | - | - |
| 1788378017 | 32.78° C | 34% | 1029.2 hPa | 0 mm | - | - | - |
| 1788377434 | 33.33° C | 36% | 1029.4 hPa | 0 mm | - | - | - |
| 1788376817 | 32.78° C | 37% | 1029.4 hPa | 0 mm | - | - | - |
| 1788376217 | 32.78° C | 38% | 1029.8 hPa | 0 mm | - | - | - |
| 1788375617 | 32.78° C | 39% | 1030 hPa | 0 mm | - | - | - |
| 1788375017 | 32.78° C | 39% | 1030.1 hPa | 0 mm | - | - | - |
| 1788374417 | 32.22° C | 37% | 1030 hPa | 0 mm | - | - | - |
| 1788373817 | 32.22° C | 39% | 1030.1 hPa | 0 mm | - | - | - |
| 1788373217 | 31.67° C | 40% | 1029.9 hPa | 0 mm | - | - | - |
| 1788372617 | 31.11° C | 42% | 1030.1 hPa | 0 mm | - | - | - |
| 1788372017 | 31.11° C | 44% | 1030.1 hPa | 0 mm | - | - | - |
| 1788371417 | 31.11° C | 43% | 1030.2 hPa | 0 mm | - | - | - |
| 1788370817 | 31.11° C | 45% | 1030.4 hPa | 0 mm | - | - | - |
| 1788370217 | 31.11° C | 45% | 1030.4 hPa | 0 mm | - | - | - |
| 1788369617 | 30.56° C | 45% | 1030.4 hPa | 0 mm | - | - | - |
| 1788369017 | 30.56° C | 46% | 1030.5 hPa | 0 mm | - | - | - |
| 1788368417 | 30° C | 47% | 1030.4 hPa | 0 mm | - | - | - |
| 1788367817 | 30° C | 47% | 1030.5 hPa | 0 mm | - | - | - |
| 1788367217 | 29.44° C | 48% | 1030.4 hPa | 0 mm | - | - | - |
| 1788366617 | 29.44° C | 48% | 1030.3 hPa | 0 mm | - | - | - |
| 1788366017 | 29.44° C | 48% | 1030.4 hPa | 0 mm | - | - | - |
| 1788365417 | 29.44° C | 48% | 1030.6 hPa | 0 mm | - | - | - |
* Rain latest hour (hover to see other rain measurements)
** Current wind speed in m/s (hover to see current wind gust speed)